Home > Weather > Cocoa Beach > Past weeks

Flag for USA Past Weather in Cocoa Beach, Florida, USA — Yesterday and Last 2 Weeks

Now
82 °F

Clear.


Feels Like: 89 °F
Forecast: 79 / 89 °F
Wind: 12 mph from South

Location: Cocoa / Patrick Air Force Base

Current Time: Jun 26, 2016 at 2:30:59 AM

Latest Report: Jun 26, 2016 at 1:58 AM


Visibility: 10 mi

Pressure: 30.08 "Hg

Humidity: 83%

Dew Point: 76 °F

Location of Cocoa BeachLocation

Past Weather in Cocoa Beach — Graph

°F

Cocoa Beach Temperature Yesterday

Maximum temperature yesterday: 89 °F (at 2:58 PM)
Minimum temperature yesterday: 79 °F (at 5:58 AM)
Average temperature yesterday: 84 °F

High & Low Weather Summary for the Past Weeks

 TemperatureHumidityPressure
High94 °F (Jun 16, 1:58 PM)95% (Jun 19, 3:58 AM)30.21 "Hg (Jun 19, 3:58 AM)
Low73 °F (Jun 20, 4:55 AM)47% (Jun 17, 4:58 PM)29.86 "Hg (Jun 17, 6:58 PM)
Average83 °F75%30.06 "Hg
* Reported Jun 11 12:58 AM — Jun 26 12:58 AM, Cocoa Beach, Weather by CustomWeather, © 2016

Note: Actual official high and low records may vary slightly from our data, if they occured in-between our weather recording intervals... More about our weather records

Advertising

Cocoa Beach Weather History for the Previous 24 Hours

Scroll right to see more
 ConditionsComfort  
Time TempWeatherWind HumidityBarometerVisibility
12:58 AM
Sun, Jun 26
82 °FClear.12 mph82%30.09 "Hg10 mi
11:58 PM
Sat, Jun 25
83 °FClear.10 mph81%30.10 "Hg10 mi
10:58 PM83 °FClear.10 mph80%30.11 "Hg10 mi
9:58 PM83 °FClear.10 mph81%30.09 "Hg10 mi
8:58 PM84 °FSunny.15 mph79%30.07 "Hg10 mi
7:58 PM85 °FSunny.13 mph75%30.07 "Hg10 mi
6:58 PM87 °FSunny.14 mph71%30.05 "Hg10 mi
5:58 PM88 °FSunny.15 mph70%30.05 "Hg10 mi
4:58 PM89 °FSunny.16 mph69%30.06 "Hg10 mi
3:58 PM89 °FSunny.14 mph70%30.08 "Hg10 mi
2:58 PM89 °FSunny.16 mph70%30.09 "Hg10 mi
1:58 PM89 °FPassing clouds.12 mph70%30.11 "Hg10 mi
12:58 PM88 °FSunny.10 mph73%30.11 "Hg10 mi
11:58 AM88 °FSunny.8 mph73%30.13 "Hg10 mi
10:58 AM89 °FSunny.3 mph65%30.13 "Hg10 mi
9:58 AM85 °FSunny.5 mph75%30.12 "Hg10 mi
8:58 AM84 °FSunny.5 mph79%30.13 "Hg10 mi
7:58 AM82 °FSunny.3 mph86%30.10 "Hg10 mi
6:58 AM80 °FClear.3 mph91%30.09 "Hg10 mi
5:58 AM79 °FClear.5 mph90%30.07 "Hg10 mi
4:58 AM80 °FClear.7 mph87%30.06 "Hg10 mi
3:58 AM80 °FClear.5 mph85%30.06 "Hg10 mi
2:58 AM81 °FClear.7 mph85%30.07 "Hg10 mi
Weather by CustomWeather, © 2016

See weather overviewHow to use our weather pages